Precipitable_Water
1.03 1.05 1.00 0.95 0.87 0.82 0.74 0.66 0.60 0.62 0.69 0.72 0.81 0.77 0.74 0.75 0.76 0.75 0.73 0.73 0.71 0.72 0.70 0.67 0.67 0.66 0.66 0.63 0.58 0.67 0.72 0.80
0.88 0.84 0.80 0.75 0.74 0.67 0.64 0.65 0.69 0.76 0.79 0.87 0.87 0.84 0.84 0.83 0.82 0.80 0.79 0.79 0.78 0.79 0.77 0.76 0.75 0.73 0.72 0.70 0.60 0.56 0.63 0.73
0.73 0.71 0.65 0.65 0.68 0.70 0.74 0.75 0.79 0.84 0.91 0.93 0.90 0.87 0.88 0.90 0.89 0.88 0.86 0.84 0.84 0.84 0.83 0.83 0.81 0.79 0.76 0.76 0.71 0.62 0.57 0.55
0.75 0.69 0.65 0.69 0.71 0.76 0.82 0.87 0.89 0.92 0.96 0.94 0.93 0.93 0.95 0.93 0.91 0.91 0.92 0.92 0.92 0.92 0.91 0.90 0.89 0.85 0.81 0.80 0.74 0.67 0.63 0.62
0.80 0.74 0.76 0.79 0.80 0.85 0.91 0.95 1.01 1.02 1.01 0.96 0.97 0.98 0.96 0.91 0.89 0.88 0.91 0.94 0.93 0.93 0.93 0.94 0.91 0.90 0.86 0.86 0.82 0.73 0.69 0.63
0.95 0.83 0.79 0.82 0.88 0.92 0.98 1.02 1.07 1.06 1.08 1.00 0.94 0.91 0.86 0.82 0.83 0.85 0.88 0.90 0.89 0.91 0.91 0.93 0.92 0.91 0.88 0.87 0.87 0.80 0.76 0.70
0.97 0.94 0.81 0.89 0.94 1.00 1.05 1.07 1.09 1.13 1.12 1.04 0.97 0.91 0.85 0.86 0.88 0.90 0.91 0.91 0.85 0.81 0.83 0.85 0.82 0.82 0.78 0.80 0.80 0.81 0.80 0.79
0.99 0.98 0.91 0.97 1.00 1.04 1.06 1.10 1.12 1.13 1.12 1.10 1.07 0.99 0.96 0.96 0.97 0.93 0.89 0.86 0.79 0.76 0.74 0.76 0.75 0.74 0.70 0.71 0.73 0.72 0.75 0.76
1.01 1.09 1.07 1.03 1.12 1.16 1.15 1.18 1.16 1.15 1.08 1.08 1.04 1.01 1.00 0.98 0.94 0.90 0.84 0.81 0.77 0.75 0.71 0.70 0.66 0.65 0.63 0.67 0.69 0.68 0.66 0.66
1.14 1.20 1.37 1.31 1.41 1.32 1.23 1.20 1.10 1.07 1.05 1.03 1.00 1.00 0.99 0.96 0.89 0.82 0.78 0.75 0.72 0.69 0.65 0.59 0.59 0.57 0.56 0.57 0.57 0.59 0.59 0.65
1.23 1.39 1.40 1.26 1.47 1.26 1.19 1.05 0.99 0.99 0.98 0.98 0.94 0.92 0.91 0.86 0.79 0.76 0.73 0.69 0.66 0.61 0.57 0.55 0.53 0.52 0.51 0.52 0.50 0.49 0.48 0.53
1.27 1.33 1.37 1.36 1.23 1.12 1.03 0.97 0.97 0.98 0.94 0.90 0.89 0.86 0.81 0.79 0.77 0.72 0.66 0.61 0.58 0.55 0.52 0.52 0.50 0.48 0.46 0.42 0.41 0.41 0.42 0.49
1.19 1.16 1.16 1.15 1.04 0.97 0.93 0.93 0.93 0.92 0.92 0.89 0.85 0.80 0.76 0.69 0.62 0.59 0.60 0.56 0.52 0.50 0.49 0.47 0.46 0.49 0.42 0.40 0.40 0.42 0.42 0.46
1.02 1.04 0.97 0.94 0.92 0.93 0.97 0.97 0.94 0.89 0.84 0.81 0.75 0.69 0.63 0.60 0.59 0.56 0.54 0.49 0.48 0.49 0.48 0.44 0.43 0.45 0.39 0.35 0.30 0.34 0.43 0.47
0.82 0.81 0.82 0.84 0.91 0.88 0.80 0.77 0.76 0.74 0.72 0.68 0.63 0.62 0.59 0.57 0.55 0.54 0.53 0.51 0.47 0.47 0.47 0.46 0.41 0.46 0.46 0.40 0.31 0.29 0.35 0.40
0.67 0.69 0.70 0.70 0.73 0.71 0.68 0.66 0.64 0.65 0.63 0.60 0.59 0.60 0.58 0.56 0.54 0.52 0.50 0.49 0.47 0.46 0.44 0.41 0.38 0.33 0.37 0.38 0.37 0.36 0.27 0.25
0.71 0.72 0.73 0.73 0.70 0.69 0.68 0.65 0.62 0.63 0.60 0.57 0.56 0.56 0.55 0.54 0.57 0.57 0.53 0.47 0.45 0.43 0.39 0.33 0.34 0.34 0.34 0.35 0.35 0.34 0.36 0.30
0.69 0.71 0.72 0.73 0.71 0.70 0.67 0.63 0.59 0.56 0.56 0.56 0.56 0.57 0.58 0.63 0.58 0.50 0.49 0.46 0.42 0.41 0.38 0.31 0.30 0.30 0.31 0.32 0.32 0.30 0.30 0.30
0.70 0.69 0.66 0.67 0.68 0.66 0.64 0.63 0.61 0.58 0.56 0.54 0.52 0.48 0.50 0.47 0.44 0.44 0.44 0.43 0.41 0.38 0.32 0.30 0.28 0.25 0.25 0.24 0.27 0.27 0.29 0.28
0.67 0.65 0.64 0.66 0.64 0.62 0.62 0.61 0.59 0.57 0.55 0.52 0.47 0.42 0.40 0.45 0.47 0.47 0.43 0.46 0.40 0.34 0.29 0.28 0.28 0.25 0.21 0.21 0.22 0.23 0.23 0.23
Wind_Speed
10 9 7 6 6 4 3 2 2 3 4 4 5 7 8 9 12 13 15 15 15 16 16 16 16 16 17 18 18 17 17 16
9 7 7 6 5 4 3 3 3 3 4 4 6 8 10 12 13 14 14 15 16 16 17 18 18 18 19 19 18 17 17 17
8 7 6 5 5 4 3 3 3 3 5 6 8 9 11 13 14 15 16 16 17 19 19 20 20 20 20 19 19 18 18 17
7 6 5 5 4 3 3 4 5 5 7 8 10 12 14 15 16 17 17 18 20 21 22 22 22 22 21 20 20 19 18 18
7 6 5 4 4 5 5 5 6 8 9 10 13 15 16 17 18 19 19 21 23 24 23 23 24 24 24 23 22 22 20 19
7 6 6 6 6 7 7 8 9 10 12 14 15 17 17 18 20 21 22 23 24 25 24 25 26 27 26 26 26 26 25 23
8 7 8 8 8 9 9 11 12 14 16 17 18 19 19 21 22 23 24 24 25 25 26 27 28 29 28 28 28 28 28 28
9 9 9 10 9 11 12 13 15 17 18 19 20 21 22 22 23 24 25 27 27 28 30 31 31 31 31 30 29 29 29 30
11 12 11 12 13 13 14 15 17 18 20 21 21 22 22 24 26 27 29 30 31 32 34 34 33 33 31 30 30 31 31 32
12 13 12 11 13 13 14 16 18 20 19 20 22 23 26 27 29 30 32 33 34 36 36 35 35 34 34 34 34 35 35 35
13 13 15 17 13 14 17 17 18 17 19 22 25 27 29 30 31 33 34 36 37 37 37 37 37 38 38 39 39 39 40 39
13 15 18 18 19 21 18 19 18 19 22 25 28 29 30 31 33 35 36 37 38 39 39 39 40 41 42 43 43 43 42 42
14 17 19 20 20 20 20 19 21 22 27 28 29 30 31 32 34 36 38 39 40 41 42 43 44 46 46 48 48 45 45 44
14 17 19 20 21 21 22 23 25 27 29 30 31 32 33 35 38 39 40 41 43 44 46 47 47 48 49 50 49 49 45 47
15 17 19 21 23 24 25 26 27 28 30 31 32 34 36 38 39 41 43 44 44 46 48 48 50 50 50 49 49 49 51 48
17 18 20 21 22 24 25 26 28 29 30 32 35 37 39 41 42 44 44 45 46 48 49 50 50 50 49 49 49 51 52 54
19 20 20 21 23 25 26 28 29 30 32 34 37 40 42 43 44 46 47 47 48 50 50 50 50 50 50 51 51 52 52 54
18 19 21 24 25 26 28 29 30 32 35 38 41 44 46 48 49 48 48 49 51 51 51 51 50 50 49 49 50 50 52 52
18 19 22 23 25 28 29 31 32 36 40 44 47 49 50 49 49 49 50 50 50 51 51 50 48 47 46 46 47 48 48 48
18 20 23 25 27 29 32 35 38 41 43 47 49 51 50 49 48 48 50 49 50 50 49 48 47 45 43 43 43 42 40 38
Wind_Direction
174 177 188 194 192 194 205 222 257 285 304 319 329 332 332 333 333 333 333 334 335 337 338 335 331 326 323 322 316 311 306 301
176 184 187 189 196 204 222 248 265 285 306 316 325 325 326 327 328 329 330 331 332 333 333 333 329 324 322 320 319 315 309 303
180 183 188 195 202 221 242 257 269 288 301 308 317 320 321 323 323 323 323 324 324 325 324 325 326 324 321 318 317 315 312 306
193 191 193 199 219 233 244 263 274 289 302 306 311 315 315 317 320 318 317 318 318 318 317 318 319 318 316 314 314 313 311 308
195 203 206 219 237 246 260 274 285 289 299 303 306 310 310 311 315 317 314 313 314 314 312 312 314 313 311 307 306 307 306 304
207 218 233 245 256 265 267 280 286 291 296 301 301 307 307 307 311 313 313 313 313 313 310 309 312 311 307 304 301 298 298 295
225 244 255 257 265 267 276 283 286 292 298 301 300 303 304 306 307 310 310 312 313 312 309 308 309 308 306 302 299 296 293 290
243 251 260 260 273 274 283 284 287 291 296 298 300 300 302 304 306 308 309 310 310 309 308 307 306 305 304 300 297 296 294 291
260 260 267 264 275 276 282 288 292 294 297 299 299 301 303 303 305 306 307 307 308 307 307 306 304 304 303 300 298 296 294 291
267 267 251 274 278 286 292 300 299 300 301 302 305 303 304 303 305 305 306 306 306 305 305 304 303 301 299 297 296 295 293 290
273 258 257 294 271 297 302 301 304 304 303 304 305 304 304 304 304 305 306 305 305 304 304 303 301 300 298 296 295 293 292 288
271 274 283 287 295 302 298 299 300 301 303 304 305 305 305 305 305 305 306 305 305 304 304 302 301 300 298 295 294 292 289 287
278 285 289 292 295 298 299 296 299 299 302 304 304 304 305 305 306 306 306 305 305 304 303 302 300 299 297 296 294 291 289 285
293 292 293 294 296 297 297 296 297 299 302 303 304 305 305 305 306 306 306 304 304 304 303 301 299 300 297 296 294 290 286 286
299 299 298 297 297 298 298 298 299 300 301 302 305 305 306 306 307 307 306 305 304 304 303 302 300 298 298 296 294 290 290 285
301 299 300 301 302 302 303 302 302 302 303 304 306 306 306 307 306 306 305 304 303 304 303 302 300 299 296 295 293 291 288 286
303 302 302 304 304 304 304 303 304 304 305 306 307 307 307 306 305 304 304 303 304 303 303 302 300 298 296 294 292 291 288 287
307 306 307 306 306 307 306 305 305 305 306 306 307 306 305 304 304 304 303 303 304 303 303 302 301 299 297 295 294 292 290 288
309 309 311 311 310 309 308 305 305 305 306 307 308 308 306 305 304 304 304 304 304 304 303 302 302 300 298 298 296 295 293 290
314 314 313 312 311 310 309 308 307 307 308 310 309 309 307 305 305 306 307 305 306 305 304 303 302 301 300 301 299 298 297 295